Regional Weather Roundup
Issued by NWS

Home | Current Version | Previous Version | Graphics & Text | Print | Product List | Glossary On
Versions: 1 2 3 4 5 6 7 8 9 10 11 12 13 14 15 16 17 18 19 20 21 22 23 24 25 26 27 28 29 30 31 32 33 34 35 36 37 38 39 40 41 42 43 44 45 46 47 48 49 50
000
ASUS43 KDTX 011710
RWRMI
MICHIGAN HOURLY REGIONAL WEATHER ROUNDUP
NATIONAL WEATHER SERVICE DETROIT/PONTIAC MI
1200 PM EST SUN FEB 01 2015

NOTE: "FAIR" INDICATES FEW OR NO CLOUDS BELOW 12,000 FEET WITH NO
SIGNIFICANT WEATHER AND/OR OBSTRUCTION TO VISIBILITY.

MIZ047>049-052>055-059>063-066>070-074>076-081>083-011800-
SOUTHEAST LOWER MICHIGAN

CITY           SKY/WX    TMP DP  RH WIND       PRES   REMARKS
ADRIAN         SNOW      24  21  88 E18       30.01F VSB 1/2 WCI  10
ALMA           LGT SNOW  16  13  89 NE21      30.14F WCI  -2
ANN ARBOR      LGT SNOW  23  19  85 E16G23    30.03F FOG     WCI  10
BAD AXE        LGT SNOW  15  12  88 E15G21    30.19S VSB 1   WCI   0
CARO           SNOW      16  12  84 E9        30.17S VSB 1/2 WCI   5
DETROIT CITY   SNOW      23  17  78 NE16      30.09F VSB 1/2 WCI  10
DETROIT        LGT SNOW  23  19  86 NE12G20   30.06F VSB 1   WCI  12
FLINT          SNOW      19  13  77 NE23      30.11F VSB 1/2 WCI   2
GROSSE ILE     LGT SNOW  23  19  86 NE17      30.04F WCI   9
HILLSDALE      SNOW      24  22  92 E17       29.95F VSB 1/4 WCI  10
HOWELL         LGT SNOW  20  17  88 NE12G20   30.04F WCI   8

CITY           SKY/WX    TMP DP  RH WIND       PRES   REMARKS
JACKSON        SNOW      22  19  89 NE9       30.00F VSB 1/2 WCI  12
LAMBERTVILLE   LGT SNOW  28  23  80 E9G18     30.01F VSB 3/4 WCI  20
LANSING        SNOW      19  14  81 NE15G26   30.07F VSB 1/2 WCI   5
LAPEER         LGT SNOW  17  14  86 NE13      30.13F VSB 1   WCI   4
MASON          SNOW      20  17  87 NE14      30.04F VSB 1/2 WCI   7
MONROE         SNOW      25  21  86 NE16      30.02F VSB 1/4 WCI  12
MT. CLEMENS    LGT SNOW  22  18  86 NE13      30.08F VSB 3/4 WCI   9
PONTIAC        SNOW      19  15  84 E18       30.06F VSB 1/2 WCI   4
PORT HOPE        N/A     16  10  77 NE17      30.20F WCI   0
PORT HURON     LGT SNOW  19  16  86 NE12      30.14F WCI   7
TRI CITIES     SNOW      17  12  80 NE18      30.18S VSB 1/2 WCI   1
TROY           SNOW      23  19  83 NE14      30.10F VSB 1/2 WCI  11
SAGINAW HB     LGT SNOW  18  14  86 NE16      30.17F VSB 3/4 WCI   3
$$
MIZ043>046-050>051-056>058-064>065-071>073-077>080-011800-
SOUTHWEST LOWER MICHIGAN

CITY           SKY/WX    TMP DP  RH WIND       PRES   REMARKS
BATTLE CREEK   SNOW      22  17  81 NE14      29.98F VSB 1/2 WCI   9
BENTON HARBOR  SNOW      22  20  92 E16G25    29.92F VSB 1/2 WCI   8
BIG RAPIDS     LGT SNOW  13  10  87 E16       30.12F VSB 1   WCI  -3
COLDWATER      SNOW      24  22  91 E13G21    29.95F VSB 1/2 WCI  13
FREMONT        LGT SNOW  15  10  82 E21       30.09F WCI  -3
HOLLAND        HVY SNOW  19  14  81 E17G24    30.02F VSB 1/4 WCI   4
GRAND RAPIDS   SNOW      17  12  80 NE18G31   30.04F VSB 1/2 WCI   1
IONIA          LGT SNOW  18  15  86 NE17G26   30.06F WCI   3
KALAMAZOO      SNOW      22  18  85 NE7G20    29.98F VSB 1/4 WCI  13
LUDINGTON      LGT SNOW  16  10  80 NE10      30.14F WCI   3
MARSHALL       LGT SNOW  22  19  88 NE7       29.99F VSB 3/4 WCI  13
MOUNT PLEASANT LGT SNOW  15  11  84 NE8       30.16F VSB 1   WCI   4
MUSKEGON       SNOW      17  12  80 NE23G31   30.06F VSB 1/2 WCI  -1
SOUTH HAVEN    SNOW      22  18  86 E20G26    29.96F VSB 1/2 WCI   7
$$
MIZ016>042-011800-
NORTHERN LOWER MICHIGAN

CITY           SKY/WX    TMP DP  RH WIND       PRES   REMARKS
ALPENA         LGT SNOW   7   1  76 NE12      30.29F WCI  -8
BEAVER ISLAND  CLOUDY    -2  -7  76 NE5       30.32F WCI -12
BELLAIRE       CLOUDY    10   0  64 NE12      30.27F WCI  -5
CADILLAC       LGT SNOW   9   4  79 NE15G21   30.12F WCI  -8
CHARLEVOIX     CLOUDY     6   0  77 NE13      30.30F WCI -10
FRANKFORT      CLOUDY    12   4  70 E9G20     30.20F WCI  -1
GAYLORD        CLOUDY     4  -1  80 E8        30.19F WCI  -9
GRAYLING       CLOUDY     8   1  74 NE14      30.20F WCI  -8
HARBOR SPRINGS CLOUDY     5  -2  72 E12G18    30.28F WCI -11
HOUGHTON LAKE  CLOUDY     9   2  73 NE15      30.18F WCI  -8
MANISTEE       CLOUDY    12   5  73 E14G23    30.17F WCI  -3
OSCODA         LGT SNOW  12   7  79 NE15      30.25F WCI  -4
PELLSTON       CLOUDY     5  -3  69 E12       30.31F WCI -11
TRAVERSE CITY  CLOUDY    11   1  64 E12       30.22F WCI  -3
$$
MIZ007>008-015-011800-
EASTERN UPPER MICHIGAN

CITY           SKY/WX    TMP DP  RH WIND       PRES   REMARKS
KINROSS        PTSUNNY   -6 -15  65 NE5       30.35F WCI -17
MACKINAC ISLAN CLOUDY    -2  -9  71 NE13      30.32F WCI -20
NEWBERRY       CLOUDY    -4 -12  67 NE9       30.33F WCI -20
S. S. MARIE    MOSUNNY   -6 -19  53 NE5       30.36F WCI -17
MUNISING         N/A      9  -1  64 NE12      30.33F WCI  -6
$$
MIZ004>006-011>014-085-011800-
CENTRAL UPPER MICHIGAN

CITY           SKY/WX    TMP DP  RH WIND       PRES   REMARKS
MANISTIQUE     CLOUDY     1 -12  55 NE7       30.33F WCI -12
ESCANABA       CLOUDY     7  -2  66 NE9       30.33S WCI  -7
MENOMINEE      CLOUDY     9  -2  61 NE18      30.27F WCI -10
SAWYER-GWINN   LGT SNOW   9   3  78 NE12      30.26F WCI  -6
$$
MIZ001>003-009>011-084-011800-
WESTERN UPPER MICHIGAN

CITY           SKY/WX    TMP DP  RH WIND       PRES   REMARKS
IRON MOUNTAIN  CLOUDY    10   0  63 E13       30.25S WCI  -5
HOUGHTON       LGT SNOW   8   1  73 E7        30.32F WCI  -3
COPPER HARBOR    N/A     10   3  73 E13G20    30.38F WCI  -5
IRONWOOD       CLOUDY    10   1  67 NE8       30.27S WCI  -1
$$

ABBREVIATIONS USED IN REMARKS
   TC - TEMPERATURE IN CELSIUS
  WCI - WIND CHILL INDEX
   HX - HEAT INDEX
  VSB - VISIBILITY




USA.gov is the U.S. government's official web portal to all federal, state and local government web resources and services.